{"data":{"norad_id":65531,"epoch":"2026-05-25T03:21:42.455808Z","epoch_age_seconds":56150,"freshness":"FRESH","line1":"1 65531U 25200M   26145.14007472 -.00011344  00000+0 -78390-3 0  9996","line2":"2 65531  97.4527 214.7751 0001892 186.9942 173.1259 15.05624239 40630","mean_motion":15.05624239,"eccentricity":0.0001892,"inclination_deg":97.4527,"raan_deg":214.7751,"arg_perigee_deg":186.9942,"mean_anomaly_deg":173.1259,"bstar":-0.0007839,"rev_number":4063,"period_min":95.641393297202,"perigee_km":548.27944849789,"apogee_km":550.90090046071,"semimajor_km":6927.7271744793,"source":"CELESTRAK","updated_at":"2026-05-25T13:38:20.848474Z"}}